This demonstration page uses our WeatherBlox Daily Observations layout. Learn more.

40.92945, -100.16068

Hourly Observations for December 18, 2015

Temp ( °F °C ) Dew Point ( °F °C ) Humidity (%) Winds ( mph kmh ) Pressure ( in mb ) Visibility ( mi km ) Precip ( " mm )
12:15 am 00:15 Clear 10 -12.2 7 -13.7 89 89 WSW 5 7 30.33 1027 10 16.0934 N/A
12:35 am 00:35 Clear 9 -12.7 6 -14.3 88 88 WSW 5 7 30.36 1028 10 16.0934 N/A
12:55 am 00:55 Clear 9 -13 6 -14.6 88 88 WSW 5 7 30.33 1027 10 16.0934 N/A
1:15 am 01:15 Clear 8 -13.1 5 -14.8 87 87 W 3 6 30.33 1027 10 16.0934 N/A
1:35 am 01:35 Clear 9 -13 6 -14.7 87 87 SW 5 7 30.27 1025 10 16.0934 N/A
1:55 am 01:55 Clear 8 -13.5 4 -15.3 86 86 W 3 6 30.27 1025 10 16.0934 N/A
2:15 am 02:15 Clear 8 -13.5 4 -15.3 86 86 Calm 30.33 1027 10 16.0934 N/A
2:35 am 02:35 Clear 9 -12.8 6 -14.4 88 88 Calm 30.33 1027 10 16.0934 N/A
2:55 am 02:55 Clear 7 -13.7 3 -15.9 84 84 W 3 6 30.33 1027 10 16.0934 N/A
3:15 am 03:15 Clear 8 -13.4 5 -15.1 87 87 W 5 7 30.27 1025 10 16.0934 N/A
3:35 am 03:35 Clear 9 -12.8 5 -14.9 84 84 WNW 6 9 30.27 1025 10 16.0934 N/A
3:55 am 03:55 Clear 4 -15.6 0 -17.7 84 84 WNW 3 6 30.33 1027 10 16.0934 N/A
4:15 am 04:15 Clear 0 -17.9 -3 -19.7 86 86 W 5 7 30.33 1027 10 16.0934 N/A
4:35 am 04:35 Clear 8 -13.4 5 -15 88 88 W 10 17 30.27 1025 10 16.0934 N/A
4:55 am 04:55 Clear 12 -11.1 7 -13.8 81 81 W 10 17 30.27 1025 10 16.0934 N/A
5:15 am 05:15 Clear 10 -12.2 5 -15.1 79 79 W 9 15 30.27 1025 10 16.0934 N/A
5:35 am 05:35 Clear 8 -13.1 4 -15.7 81 81 W 7 11 30.27 1025 10 16.0934 N/A
5:55 am 05:55 Clear 7 -14 2 -16.5 82 82 WNW 5 7 30.3 1026 10 16.0934 0 0
6:15 am 06:15 Clear 2 -16.8 -3 -19.2 82 82 Calm 30.33 1027 10 16.0934 N/A
6:35 am 06:35 Clear 4 -15.6 0 -17.8 83 83 Calm 30.33 1027 10 16.0934 N/A
6:55 am 06:55 Clear 2 -16.4 -1 -18.4 85 85 Calm 30.33 1027 10 16.0934 N/A
7:15 am 07:15 Clear 5 -15.1 2 -16.9 86 86 W 5 7 30.3 1026 10 16.0934 N/A
7:35 am 07:35 Clear 5 -15.2 2 -16.9 87 87 Calm 30.3 1026 10 16.0934 N/A
7:55 am 07:55 Clear 6 -14.7 3 -16.2 88 88 Calm 30.3 1026 10 16.0934 N/A
8:15 am 08:15 Sunny 5 -14.9 2 -16.8 86 86 NNW 3 6 30.3 1026 10 16.0934 N/A
8:35 am 08:35 Sunny 5 -15 2 -16.6 88 88 Calm 30.3 1026 10 16.0934 N/A
8:55 am 08:55 Sunny 7 -14.1 4 -15.7 88 88 Calm 30.3 1026 10 16.0934 N/A
9:15 am 09:15 Sunny 9 -13 6 -14.6 88 88 NW 3 6 30.27 1025 10 16.0934 N/A
9:35 am 09:35 Sunny 11 -11.6 8 -13.6 85 85 WNW 5 7 30.27 1025 10 16.0934 N/A
9:55 am 09:55 Sunny 15 -9.7 10 -12.1 83 83 WNW 6 9 30.24 1024 10 16.0934 N/A
10:15 am 10:15 Sunny 17 -8.5 11 -11.5 79 79 WNW 8 13 30.24 1024 10 16.0934 N/A
10:35 am 10:35 Sunny 18 -7.6 11 -11.4 74 74 WNW 8 13 30.27 1025 10 16.0934 N/A
10:55 am 10:55 Sunny 20 -6.8 12 -11.1 72 72 NW 8 13 30.24 1024 10 16.0934 N/A
11:15 am 11:15 Sunny 21 -6.1 13 -10.5 71 71 WNW 12 19 30.24 1024 10 16.0934 N/A
11:35 am 11:35 Sunny 22 -5.5 14 -9.9 71 71 WNW 12 19 30.24 1024 10 16.0934 N/A
11:55 am 11:55 Sunny 24 -4.7 15 -9.2 71 71 WNW 12 19 30.24 1024 10 16.0934 N/A
12:15 pm 12:15 Sunny 25 -4 16 -8.9 69 69 WNW 10 17 30.21 1023 10 16.0934 N/A
12:35 pm 12:35 Sunny 26 -3.2 17 -8.4 68 68 NW 10 17 30.18 1022 10 16.0934 N/A
12:55 pm 12:55 Sunny 27 -2.9 17 -8.3 67 67 WNW 8 13 30.18 1022 10 16.0934 N/A
1:15 pm 13:15 Sunny 28 -2.5 17 -8.1 66 66 WNW 7 11 30.18 1022 10 16.0934 N/A
1:35 pm 13:35 Sunny 28 -2.1 18 -7.6 66 66 WNW 7 11 30.18 1022 10 16.0934 N/A
1:55 pm 13:55 Sunny 29 -1.7 19 -7.4 65 65 W 7 11 30.18 1022 10 16.0934 N/A
2:15 pm 14:15 Sunny 30 -1.3 19 -7.1 65 65 WNW 5 7 30.15 1021 10 16.0934 N/A
2:35 pm 14:35 Sunny 30 -1 19 -7.1 64 64 WNW 5 7 30.15 1021 10 16.0934 N/A
2:55 pm 14:55 Sunny 31 -0.8 19 -7 63 63 Calm 30.18 1022 10 16.0934 N/A
3:15 pm 15:15 Sunny 31 -0.5 20 -6.7 63 63 Calm 30.18 1022 10 16.0934 N/A
3:35 pm 15:35 Sunny 31 -0.3 20 -6.9 61 61 Calm 30.18 1022 10 16.0934 N/A
3:55 pm 15:55 Sunny 32 0 20 -6.6 62 62 Calm 30.21 1023 10 16.0934 N/A
4:15 pm 16:15 Sunny 30 -1.3 20 -6.4 69 69 ENE 3 6 30.18 1022 10 16.0934 N/A
4:35 pm 16:35 Sunny 27 -2.6 19 -7.2 71 71 ENE 3 6 30.21 1023 10 16.0934 0.01 0.254
4:55 pm 16:55 Sunny 29 -1.8 20 -6.8 69 69 Calm 30.24 1024 10 16.0934 0.01 0.254
5:15 pm 17:15 Clear 27 -2.8 19 -7.2 72 72 E 5 7 30.24 1024 10 16.0934 N/A
5:35 pm 17:35 Clear 25 -3.7 19 -7.1 78 78 Calm 30.24 1024 10 16.0934 N/A
5:55 pm 17:55 Clear 25 -3.8 18 -7.6 75 75 Calm 30.24 1024 10 16.0934 0 0
6:15 pm 18:15 Clear 24 -4.6 19 -7.4 81 81 Calm 30.27 1025 10 16.0934 N/A
6:35 pm 18:35 Clear 22 -5.5 17 -8.2 82 82 E 5 7 30.27 1025 10 16.0934 N/A
6:55 pm 18:55 Clear 22 -5.7 17 -8.3 82 82 Calm 30.3 1026 10 16.0934 N/A
7:15 pm 19:15 Clear 19 -7 15 -9.5 83 83 SW 5 7 30.33 1027 10 16.0934 N/A
7:35 pm 19:35 Clear 18 -8 14 -9.9 86 86 Calm 30.33 1027 10 16.0934 N/A
7:55 pm 19:55 Clear 19 -7 16 -8.9 86 86 Calm 30.33 1027 10 16.0934 N/A
8:15 pm 20:15 Clear 19 -7 16 -8.8 87 87 Calm 30.36 1028 10 16.0934 N/A
8:35 pm 20:35 Clear 19 -7 16 -8.8 87 87 Calm 30.36 1028 10 16.0934 N/A
8:55 pm 20:55 Clear 19 -7.4 16 -8.9 89 89 Calm 30.36 1028 10 16.0934 N/A
9:15 pm 21:15 Clear 14 -9.9 12 -11.2 90 90 Calm 30.39 1029 10 16.0934 N/A
9:35 pm 21:35 Clear 15 -9.2 13 -10.5 90 90 Calm 30.36 1028 10 16.0934 N/A
9:55 pm 21:55 Clear 15 -9.7 12 -11.2 89 89 Calm 30.39 1029 10 16.0934 N/A
10:15 pm 22:15 Clear 13 -10.4 11 -11.7 90 90 ENE 3 6 30.39 1029 10 16.0934 N/A
10:35 pm 22:35 Clear 13 -10.6 11 -11.8 91 91 Calm 30.39 1029 10 16.0934 N/A
10:55 pm 22:55 Clear 13 -10.8 10 -12.2 90 90 Calm 30.39 1029 10 16.0934 N/A
11:15 pm 23:15 Clear 12 -10.9 10 -12.2 90 90 E 3 6 30.39 1029 10 16.0934 N/A
11:35 pm 23:35 Clear 13 -10.6 11 -11.9 90 90 ENE 3 6 30.39 1029 10 16.0934 N/A
11:55 pm 23:55 Clear 13 -10.3 11 -11.6 90 90 E 3 6 30.39 1029 10 16.0934 N/A

Powered by AerisWeather